GW4872 Weather Reports


Display with metric or nautical units.
time (UTC)temp
F
wind
direction
speed
MPH
gust
MPH
rain 1hr
in
rain 24hr
in
rain mn
in
humidity
%
barometer
mb
20260504220830 76 324 10.0 16.0 0.00 0.00 0.00 32 1003.4
20260504220327 76 359 7.0 16.0 0.00 0.00 0.00 32 1003.0
20260504215824 76 1 9.0 14.0 0.00 0.00 0.00 32 1003.2
20260504215320 76 26 13.0 18.0 0.00 0.00 0.00 31 1003.2
20260504214816 76 50 7.0 16.0 0.00 0.00 0.00 32 1002.9
20260504214314 77 254 9.0 15.0 0.00 0.00 0.00 32 1003.1
20260504213810 77 37 6.0 15.0 0.00 0.00 0.00 32 1002.9
20260504213306 77 86 8.0 11.0 0.00 0.00 0.00 32 1003.1
20260504212804 77 26 8.0 13.0 0.00 0.00 0.00 32 1002.9
20260504212300 77 3 7.0 16.0 0.00 0.00 0.00 33 1003.0
20260504211758 77 356 8.0 14.0 0.00 0.00 0.00 33 1003.0
20260504211253 77 353 9.0 11.0 0.00 0.00 0.00 33 1003.0
20260504210751 77 56 7.0 14.0 0.00 0.00 0.00 34 1003.0
20260504210248 77 356 5.0 19.0 0.00 0.00 0.00 35 1002.7
20260504205745 78 77 10.0 14.0 0.00 0.00 0.00 34 1002.7
20260504205243 77 1 8.0 15.0 0.00 0.00 0.00 35 1002.7
20260504204741 78 319 7.0 10.0 0.00 0.00 0.00 35 1002.7
20260504204239 78 89 6.0 13.0 0.00 0.00 0.00 35 1002.7
20260504203738 77 266 6.0 11.0 0.00 0.00 0.00 36 1002.7
20260504203235 78 10 5.0 14.0 0.00 0.00 0.00 36 1002.6
20260504202735 79 48 7.0 10.0 0.00 0.00 0.00 36 1002.6
20260504202232 78 90 7.0 11.0 0.00 0.00 0.00 38 1002.5
20260504201729 79 61 9.0 16.0 0.00 0.00 0.00 36 1002.7
20260504201226 79 345 7.0 14.0 0.00 0.00 0.00 36 1002.6
20260504200724 79 3 13.0 17.0 0.00 0.00 0.00 36 1002.6
20260504200220 79 15 8.0 13.0 0.00 0.00 0.00 36 1002.6
20260504195716 79 326 7.0 17.0 0.00 0.00 0.00 35 1002.5
20260504195212 79 36 6.0 15.0 0.00 0.00 0.00 36 1002.4
20260504194710 79 120 6.0 11.0 0.00 0.00 0.00 36 1002.6
20260504194206 80 1 8.0 14.0 0.00 0.00 0.00 37 1002.6
20260504193702 80 345 6.0 13.0 0.00 0.00 0.00 35 1002.3
20260504193200 80 45 5.0 13.0 0.00 0.00 0.00 35 1002.3
20260504192658 80 91 3.0 15.0 0.00 0.00 0.00 35 1002.2
20260504192156 80 99 5.0 10.0 0.00 0.00 0.00 34 1002.3
20260504191654 80 198 7.0 17.0 0.00 0.00 0.00 34 1002.1
20260504191150 80 324 3.0 11.0 0.00 0.00 0.00 35 1002.2
20260504190646 80 73 5.0 10.0 0.00 0.00 0.00 34 1002.1
20260504190143 81 252 5.0 13.0 0.00 0.00 0.00 33 1002.3
20260504185639 81 275 3.0 8.0 0.00 0.00 0.00 33 1002.0
20260504185136 82 15 5.0 14.0 0.00 0.00 0.00 32 1001.8
20260504184632 81 198 1.0 9.0 0.00 0.00 0.00 32 1001.9
20260504184127 81 64 7.0 13.0 0.00 0.00 0.00 33 1001.9
20260504183624 81 10 4.0 8.0 0.00 0.00 0.00 32 1001.6
20260504183122 81 8 6.0 14.0 0.00 0.00 0.00 32 1002.0
20260504182619 80 321 7.0 9.0 0.00 0.00 0.00 33 1001.9
20260504182117 80 359 4.0 16.0 0.00 0.00 0.00 32 1002.0
20260504181614 79 13 4.0 13.0 0.00 0.00 0.00 33 1001.8
20260504181111 81 305 5.0 14.0 0.00 0.00 0.00 33 1002.0
20260504180610 82 318 3.0 7.0 0.00 0.00 0.00 32 1001.9
20260504180109 82 59 7.0 9.0 0.00 0.00 0.00 31 1001.9
20260504175606 81 291 4.0 9.0 0.00 0.00 0.00 32 1002.0
20260504175102 81 345 7.0 13.0 0.00 0.00 0.00 32 1002.0
20260504174600 81 72 1.0 4.0 0.00 0.00 0.00 32 1002.1
20260504174057 81 239 6.0 10.0 0.00 0.00 0.00 32 1002.2
20260504173553 80 166 1.0 7.0 0.00 0.00 0.00 34 1002.1
20260504173051 80 189 3.0 10.0 0.00 0.00 0.00 33 1002.2
20260504172547 79 1 3.0 9.0 0.00 0.00 0.00 34 1002.1
20260504172044 79 323 7.0 10.0 0.00 0.00 0.00 33 1002.3
20260504171541 79 252 5.0 15.0 0.00 0.00 0.00 33 1002.1
20260504171038 79 292 6.0 13.0 0.00 0.00 0.00 34 1002.3
20260504170533 78 194 3.0 6.0 0.00 0.00 0.00 37 1002.2
20260504150917 71 209 4.0 6.0 0.00 0.00 0.00 43 1002.3
20260504150414 70 201 2.0 4.0 0.00 0.00 0.00 43 1002.4
20260504140841 64 42 4.0 6.0 0.00 0.00 0.00 51 1003.0
20260504140336 63 116 0.0 0.0 0.00 0.00 0.00 53 1002.9
20260504130805 54 128 2.0 4.0 0.00 0.00 0.00 72 1002.8
20260504130301 54 111 2.0 2.0 0.00 0.00 0.00 73 1003.0
20260504120225 48 168 0.0 0.0 0.00 0.00 0.00 86 1002.7
20260504110652 48 153 0.0 0.0 0.00 0.00 0.00 84 1002.9
20260504110149 48 165 0.0 0.0 0.00 0.00 0.00 85 1003.0
20260504100615 47 167 0.0 0.0 0.00 0.00 0.00 85 1003.1
20260504100113 48 167 0.0 0.0 0.00 0.00 0.00 85 1003.0
20260504081506 50 167 0.0 0.0 0.00 0.00 0.00 80 1004.3
20260504081001 50 167 0.0 0.0 0.00 0.00 0.00 80 1004.6
20260504080458 50 165 0.0 0.0 0.00 0.00 0.00 80 1004.3
20260504050311 55 167 0.0 0.0 0.00 0.00 0.00 66 1007.0
20260504045808 56 167 0.0 0.0 0.00 0.00 0.00 65 1006.9
20260504045308 57 167 0.0 0.0 0.00 0.00 0.00 65 1006.9
20260504044806 57 169 0.0 0.0 0.00 0.00 0.00 64 1007.0
20260504044303 57 167 0.0 0.0 0.00 0.00 0.00 65 1007.0
20260504043800 57 167 0.0 0.0 0.00 0.00 0.00 63 1007.3
20260504043257 57 167 0.0 0.0 0.00 0.00 0.00 63 1007.0
20260504042755 58 167 0.0 0.0 0.00 0.00 0.00 62 1007.2
20260504042251 58 167 0.0 0.0 0.00 0.00 0.00 62 1007.0
20260504041747 58 168 0.0 0.0 0.00 0.00 0.00 62 1007.2
20260504041243 59 167 0.0 0.0 0.00 0.00 0.00 62 1007.2
20260504040739 59 167 0.0 0.0 0.00 0.00 0.00 61 1007.4
20260504040237 59 166 0.0 0.0 0.00 0.00 0.00 60 1007.6
20260504035733 59 168 0.0 0.0 0.00 0.00 0.00 60 1007.4
20260504035231 59 169 0.0 0.0 0.00 0.00 0.00 59 1007.6
20260504034728 60 166 0.0 0.0 0.00 0.00 0.00 58 1007.6
20260504034225 60 165 0.0 0.0 0.00 0.00 0.00 58 1007.8
20260504033723 60 165 0.0 0.0 0.00 0.00 0.00 57 1007.7
20260504033220 60 168 0.0 0.0 0.00 0.00 0.00 57 1007.9
20260504032717 61 166 0.0 0.0 0.00 0.00 0.00 56 1007.7
20260504032214 61 167 0.0 0.0 0.00 0.00 0.00 55 1007.8
20260504031711 62 168 0.0 0.0 0.00 0.00 0.00 54 1007.8
20260504031208 62 167 0.0 0.0 0.00 0.00 0.00 53 1008.0
20260504030704 62 168 0.0 0.0 0.00 0.00 0.00 52 1008.0
20260504030201 62 170 0.0 0.0 0.00 0.00 0.00 52 1008.0
20260504025657 62 169 0.0 0.0 0.00 0.00 0.00 52 1008.0
20260504025154 62 165 0.0 0.0 0.00 0.00 0.00 52 1008.0
20260504024652 62 167 0.0 0.0 0.00 0.00 0.00 51 1007.9
20260504024148 63 167 0.0 0.0 0.00 0.00 0.00 51 1008.0
20260504023645 63 169 0.0 0.0 0.00 0.00 0.00 50 1007.9
20260504023141 63 166 0.0 0.0 0.00 0.00 0.00 50 1007.8
20260504022637 64 167 0.0 0.0 0.00 0.00 0.00 49 1008.0
20260504022133 64 168 0.0 0.0 0.00 0.00 0.00 48 1008.1
20260504021631 65 170 0.0 0.0 0.00 0.00 0.00 48 1008.1
20260504021127 65 170 0.0 0.0 0.00 0.00 0.00 47 1008.0
20260504020625 65 170 0.0 0.0 0.00 0.00 0.00 47 1008.1
20260504020120 65 170 0.0 0.0 0.00 0.00 0.00 46 1008.2
20260504015617 66 171 0.0 0.0 0.00 0.00 0.00 46 1008.1
20260504015114 66 169 0.0 0.0 0.00 0.00 0.00 45 1008.3
20260504014609 66 167 0.0 0.0 0.00 0.00 0.00 45 1008.2
20260504014107 67 170 0.0 0.0 0.00 0.00 0.00 44 1008.3
20260504013604 68 167 0.0 0.0 0.00 0.00 0.00 44 1008.3
20260504013101 68 170 0.0 0.0 0.00 0.00 0.00 42 1008.3
20260504012558 69 171 0.0 0.0 0.00 0.00 0.00 41 1008.2
20260504012056 69 170 0.0 1.0 0.00 0.00 0.00 40 1008.2
20260504011553 70 171 0.0 0.0 0.00 0.00 0.00 40 1008.2
20260504011049 70 165 0.0 0.0 0.00 0.00 0.00 39 1008.2
20260504010545 71 168 0.0 0.0 0.00 0.00 0.00 38 1008.4
20260504010041 71 171 0.0 0.0 0.00 0.00 0.00 39 1008.4
20260504005538 71 177 0.0 1.0 0.00 0.00 0.00 39 1008.4
20260504005035 72 179 0.0 0.0 0.00 0.00 0.00 36 1008.4
20260504004533 72 168 0.0 0.0 0.00 0.00 0.00 37 1008.4
20260504004030 72 172 0.0 0.0 0.00 0.00 0.00 39 1008.2
20260504003526 73 165 0.0 0.0 0.00 0.00 0.00 37 1008.4
20260504003023 73 163 0.0 2.0 0.00 0.00 0.00 35 1008.6
20260504002520 74 172 0.0 0.0 0.00 0.00 0.00 35 1008.4
20260504002017 74 183 1.0 3.0 0.00 0.00 0.00 34 1008.4
20260504001515 74 172 0.0 0.0 0.00 0.00 0.00 35 1008.6
20260504001011 75 168 0.0 1.0 0.00 0.00 0.00 34 1008.6
20260504000508 74 162 0.0 0.0 0.00 0.00 0.00 34 1008.6
20260504000005 74 178 3.0 4.0 0.00 0.00 0.00 34 1008.8
20260503235504 75 182 2.0 7.0 0.00 0.00 0.00 33 1008.7
20260503235000 75 184 2.0 3.0 0.00 0.00 0.00 34 1008.6
20260503234458 75 217 3.0 6.0 0.00 0.00 0.00 34 1008.6
20260503233956 76 203 0.0 3.0 0.00 0.00 0.00 33 1008.9
20260503233452 77 176 0.0 0.0 0.00 0.00 0.00 33 1008.7
20260503232948 76 164 0.0 1.0 0.00 0.00 0.00 31 1008.7
20260503232445 75 172 2.0 4.0 0.00 0.00 0.00 32 1009.0
20260503231943 76 172 2.0 4.0 0.00 0.00 0.00 32 1008.7
20260503231440 77 186 3.0 4.0 0.00 0.00 0.00 32 1008.8
20260503230937 76 189 0.0 3.0 0.00 0.00 0.00 32 1008.9
20260503230433 77 183 2.0 3.0 0.00 0.00 0.00 31 1008.9
20260503225931 77 248 3.0 7.0 0.00 0.00 0.00 32 1008.9
20260503225428 76 225 1.0 3.0 0.00 0.00 0.00 31 1008.9
20260503224923 77 34 3.0 3.0 0.00 0.00 0.00 32 1009.0
20260503224420 76 166 0.0 3.0 0.00 0.00 0.00 32 1008.8
20260503223918 76 139 0.0 1.0 0.00 0.00 0.00 32 1008.9
20260503223416 76 161 0.0 2.0 0.00 0.00 0.00 32 1009.0
20260503222916 77 153 0.0 4.0 0.00 0.00 0.00 32 1008.9
20260503222415 76 168 0.0 4.0 0.00 0.00 0.00 32 1009.1
20260503221913 76 137 0.0 3.0 0.00 0.00 0.00 32 1009.1
20260503221411 76 248 4.0 7.0 0.00 0.00 0.00 31 1009.2